Location: Imming
(47.3833°N, 11.8500°E)
Time: 02:05:36
(UTC+00:00)

Daily predictions for brighter satellites

Satellite Brightness Start Highest point End
(mag) Time Altitude Azimuth Time Altitude Azimuth Time Altitude Azimuth
ADEOS II 4.3 00:01:09 10° NE 00:04:14 16° E 00:07:19 10° SE
Cosmos 1553 Rocket 4.4 00:03:21 31° SW 00:05:59 51° WNW 00:12:02 10° N
NOSS 2-2 (D) 4.2 00:01:55 10° NW 00:07:00 74° SW 00:11:38 22° SSE
Cosmos 1461 4.0 00:03:24 10° NW 00:06:31 30° W 00:06:31 30° W
Cosmos 1867 3.9 00:05:01 29° WSW 00:07:45 62° NW 00:13:13 10° NNE
Cosmos 1674 Rocket 3.9 00:06:55 43° WSW 00:07:51 52° WNW 00:12:05 10° N
Cosmos 2221 Rocket 4.5 00:06:47 32° WSW 00:07:53 37° WNW 00:12:00 10° N
Cosmos 2298 Rocket 4.0 00:07:41 42° SSW 00:09:33 86° WNW 00:14:54 10° NNE
Cosmos 1674 4.0 00:10:51 26° W 00:11:22 27° WNW 00:14:38 10° NNW
USA 306 2.8 00:11:52 58° S 00:12:17 62° SE 00:16:25 10° ENE
Cosmos 1238 Rocket 4.0 00:10:24 10° NW 00:12:06 21° WNW 00:12:06 21° WNW
Thor Agena Rocket 3.8 00:08:12 10° NNE 00:13:28 60° ESE 00:15:34 35° SSE
ATLAS CENTAUR R/B 3.7 00:12:06 10° WNW 00:13:59 15° W 00:13:59 15° W
USA 307 2.9 00:15:20 54° S 00:15:44 57° SE 00:19:51 10° ENE
SL-16 R/B 3.5 00:16:08 20° SE 00:18:41 28° ESE 00:23:27 10° NE
ERBS 2.9 00:22:52 41° E 00:22:52 41° E 00:25:14 10° ENE
Cosmos 1980 3.6 00:20:38 37° SSW 00:22:58 88° ESE 00:28:40 10° NNE
ATLAS 5 CENTAUR R/B 3.0 00:12:49 10° NW 00:23:25 46° WSW 00:24:39 38° SSW
Cosmos 1378 Rocket 4.4 00:22:19 32° WSW 00:23:30 39° WNW 00:27:41 10° N
Cosmos 2333 Rocket 3.9 00:19:42 11° W 00:24:08 26° NW 00:28:53 10° N
Cosmos 1455 Rocket 3.4 00:19:46 10° N 00:24:13 64° ENE 00:26:09 32° SSE
CZ-4C R/B 3.4 00:17:18 10° NW 00:24:13 43° WSW 00:27:53 29° SSW
USA 215 4.2 00:19:21 10° NE 00:25:33 47° NNW 00:31:46 10° W
Cosmos 332 Rocket 3.8 00:28:23 40° S 00:30:01 72° ESE 00:34:49 10° NNE
NOSS 0 Rocket 4.1 00:29:23 29° SW 00:32:40 69° WNW 00:38:54 10° NNE
USA 32 4.1 00:35:15 36° SSW 00:37:20 64° W 00:42:35 10° N
Meteor 1-24 Rocket 4.1 00:34:53 25° SSE 00:37:58 54° E 00:43:17 10° NNE
Meteor 2-10 Rocket 3.6 00:32:59 10° NNW 00:38:40 72° W 00:41:17 32° S
Cosmos 1975 Rocket 3.0 00:39:39 39° S 00:41:15 85° E 00:45:44 10° N
Cosmos 839 Rocket 4.4 00:38:19 10° NW 00:44:30 51° WSW 00:49:11 22° S
USA 308 2.7 00:44:46 38° WSW 00:46:19 89° SSE 00:50:31 10° ENE
Cosmos 2219 Rocket 4.0 00:43:06 10° W 00:47:30 23° NW 00:51:55 10° N
MOS 1 Rocket 4.1 00:44:05 13° SE 00:47:37 43° ENE 00:51:42 10° N
Cosmos 1025 Rocket 3.0 00:47:03 37° S 00:48:43 82° E 00:53:03 10° N
Cosmos 1455 3.1 00:46:46 10° N 00:50:19 42° ENE 00:52:37 19° SE
Cosmos 1269 Rocket 4.0 00:45:55 10° NNW 00:51:14 89° WSW 00:55:07 19° SSE
GP-B 3.7 00:52:21 10° N 00:56:35 44° W 00:58:07 32° SW
Meteor 2-5 Rocket 3.7 00:55:38 28° S 00:58:51 89° W 01:04:33 10° NNE
CZ-2D R/B 2.2 00:54:00 10° NNE 00:59:25 78° ESE 01:02:27 26° S
Lacrosse 5 2.2 00:58:31 31° SSW 01:00:43 54° SE 01:05:42 10° ENE
Cosmos 1300 3.9 00:57:50 10° NNW 01:01:02 26° W 01:01:27 25° WSW
USA 267 4.4 01:02:14 21° SW 01:02:27 21° SW 01:07:15 10° WNW
Cosmos 2154 Rocket 4.5 00:58:09 10° N 01:04:27 60° ENE 01:10:41 10° SSE
USA 305 3.2 01:07:08 20° W 01:09:50 61° NNW 01:13:59 10° ENE
Cosmos 1544 Rocket 3.5 01:06:09 10° N 01:10:35 82° W 01:13:10 24° S
BREEZE-M DEB (TANK) 4.2 00:58:31 10° WSW 01:13:07 84° NNW 01:17:06 10° ENE
Cosmos 2237 Rocket 3.0 01:11:28 20° WSW 01:15:06 43° NW 01:20:33 10° NNE
AQUA 3.9 01:13:58 10° NNE 01:18:46 77° ESE 01:21:49 22° S
SL-16 R/B 2.5 01:14:42 16° S 01:19:49 71° WSW 01:26:05 10° NNW
Helios 1A 3.4 01:16:52 11° SSE 01:20:55 65° ENE 01:25:07 10° N
SAR-Lupe-2 3.5 01:18:46 10° NNE 01:22:22 80° ESE 01:24:09 28° S
Lacrosse 5 rocket 1.7 01:21:54 29° SSW 01:23:31 48° SE 01:27:26 10° ENE
SME Rocket 4.1 01:24:35 24° SW 01:25:52 28° W 01:30:06 10° NNW
Resurs 1-4 Rocket 2.3 01:23:22 10° N 01:28:34 60° WNW 01:31:56 22° SW
Cosmos 2074 Rocket 4.0 01:22:32 10° NNW 01:28:47 68° W 01:33:59 15° S
Cosmos 1943 Rocket 2.3 01:28:18 10° NW 01:33:51 55° WSW 01:39:21 10° S
Cosmos 2297 3.7 01:28:08 10° NNW 01:33:52 70° WSW 01:39:33 10° SSE
Cosmos 1703 3.7 01:35:51 16° S 01:38:53 60° E 01:42:46 10° NNE
CRYOSAT 2 4.4 01:38:47 18° S 01:42:22 61° W 01:47:14 10° N
Cosmos 2184 Rocket 4.2 01:37:32 10° NNW 01:43:38 54° W 01:48:45 14° SSW
Cosmos 2278 Rocket 4.0 01:41:41 10° WNW 01:44:13 13° W 01:45:23 12° WSW
ADEOS II 2.1 01:39:16 10° NNE 01:44:32 79° WNW 01:48:40 17° SSW
IDEFIX/ARIANE 42P 2.6 01:40:09 10° NNE 01:45:28 89° ESE 01:49:52 15° SSW
Cosmos 1610 Rocket 4.4 01:41:21 10° NNW 01:47:30 76° W 01:53:36 10° S
Cosmos 292 Rocket 3.8 01:48:10 17° SSW 01:51:52 85° ESE 01:56:42 10° NNE
Cosmos 2084 Rocket 4.1 01:49:15 15° WSW 01:52:01 39° NW 01:55:37 10° NNE
USA 306 3.9 01:48:02 10° W 01:52:01 42° NNW 01:56:01 10° NE
USA 307 3.9 01:51:28 10° W 01:55:29 44° NNW 01:59:31 10° NE
NPP 4.3 01:51:23 10° N 01:56:29 44° WNW 02:00:35 15° SW
ERBS 3.9 01:55:07 10° W 01:57:45 25° NNW 02:00:24 10° NE
Cosmos 2369 Rocket 2.1 01:53:34 10° NNW 01:59:12 85° WSW 02:04:48 10° SSE
IRS-1D 3.7 01:57:05 10° NNE 02:02:28 78° ESE 02:07:44 10° S
Cosmos 962 Rocket 4.5 01:56:18 10° N 02:02:29 88° E 02:08:36 10° S
SL-16 R/B 2.7 01:58:00 15° SW 02:02:31 51° WNW 02:08:04 10° NNE
Cosmos 2228 3.0 01:58:11 10° NNW 02:02:33 73° W 02:06:52 10° S
Cosmos 614 Rocket 4.2 01:57:39 10° NNW 02:02:40 49° WSW 02:07:40 10° S
EO 1 Del DPAF 3.3 01:59:18 10° N 02:02:44 53° WNW 02:05:16 17° SW
Cosmos 2251 Rocket 3.5 01:59:28 10° NNW 02:04:45 77° WSW 02:10:01 10° SSE
Meteor 1-28 Rocket 3.9 02:03:37 16° SSW 02:06:10 34° W 02:09:36 10° NNW
Cosmos 1656 Rocket 3.6 02:03:08 10° NNW 02:08:36 89° WSW 02:14:01 10° SSE
COSMOS 2455 2.9 02:04:48 14° SW 02:10:03 82° NW 02:16:08 10° NNE
Cosmos 2058 Rocket 4.4 02:06:11 10° N 02:10:22 42° ENE 02:14:31 10° SSE
Cosmos 1536 Rocket 4.2 02:08:02 15° SW 02:11:22 40° WNW 02:15:32 10° N
COSMOS 2441 4.4 02:12:54 10° N 02:17:47 75° WNW 02:22:35 10° SSW
Cosmos 1408 4.2 02:17:07 10° SSE 02:20:24 33° E 02:23:42 10° NNE
Nadezhda 1 Rocket 4.5 02:15:05 12° SSW 02:20:52 48° WNW 02:26:56 10° N
MSX 4.0 02:16:46 10° N 02:22:28 63° WNW 02:28:09 10° SSW
Cosmos 1455 4.1 02:23:22 10° NW 02:25:25 14° W 02:27:22 10° WSW
Cosmos 1603 4.0 02:20:22 10° SSW 02:25:56 67° ESE 02:31:35 10° NNE
USA 308 4.2 02:22:23 10° W 02:26:17 36° N 02:30:12 10° ENE
Cosmos 1271 Rocket 4.0 02:26:22 10° NW 02:29:29 24° W 02:32:36 10° SW
Cosmos 1606 Rocket 3.8 02:29:25 10° NNW 02:33:42 51° W 02:37:56 10° S
ALOS 3.0 02:32:18 10° NNE 02:36:54 55° E 02:41:28 10° S
CZ-2D R/B 3.9 02:35:12 10° NNW 02:38:49 19° WNW 02:42:25 10° W
CZ-2C R/B 3.1 02:33:59 10° NNE 02:39:04 57° E 02:43:58 10° S
Helios 1B rocket 2.4 02:39:38 10° N 02:43:43 78° WNW 02:47:46 10° SSW
Lacrosse 5 2.8 02:38:56 10° W 02:43:50 45° NNW 02:48:44 10° NE
Cosmos 2366 rocket 4.0 02:39:49 10° NNW 02:45:58 75° W 02:52:08 10° S
Cosmos 2341 Rocket 4.3 02:40:15 10° NNW 02:46:26 53° W 02:52:36 10° SSW
USA 305 4.5 02:46:09 10° WNW 02:49:57 33° N 02:53:46 10° ENE
BREEZE-M DEB (TANK) 2.7 02:48:14 10° SW 02:52:15 47° SSE 02:54:25 10° E
SL-8 Rocket 4.2 02:47:01 10° NNW 02:53:11 56° W 02:59:20 10° SSW
